Temperature
14 14 14 14 14 14 14 13 13 13 13 13 13 12 12 12 12 12 12 12 12 12 12 11 11 11 11 11 11 11 11 10 11 11 10 10 10 10 10 10 10 10 10
14 14 14 14 13 13 13 13 13 13 13 13 12 12 12 12 12 12 12 12 11 11 11 11 11 11 11 11 11 11 10 10 10 10 10 10 10 10 10 10 10 10 10
14 13 13 13 13 13 13 13 13 13 13 12 12 12 12 12 12 12 12 11 11 11 11 11 11 11 11 10 10 10 10 10 10 10 10 10 10 10 10 10 10 10 10
13 13 13 13 13 13 13 13 13 12 12 12 12 12 12 12 12 11 11 11 11 11 11 11 11 11 10 10 10 10 10 10 10 10 10 10 9 9 9 9 9 9 9
13 13 13 13 13 13 13 12 12 12 12 12 12 11 11 11 11 11 11 11 11 11 11 11 11 10 10 10 10 10 10 10 10 9 9 9 9 9 9 9 9 9 9
13 13 13 12 12 12 12 12 12 12 11 11 11 11 11 11 11 11 11 11 11 11 10 10 10 10 10 10 10 10 9 9 9 9 9 9 9 9 9 9 9 9 9
12 12 12 12 12 12 12 12 11 11 11 11 11 11 11 11 11 11 11 10 10 10 10 10 10 10 10 10 10 10 9 9 9 9 9 9 9 9 9 9 9 9 8
12 12 12 12 12 12 11 11 11 11 11 11 11 11 11 11 11 10 10 10 10 10 10 10 10 10 9 9 9 9 9 9 9 9 9 9 9 9 9 9 9 8 8
12 12 12 11 11 11 11 11 11 11 11 11 10 10 10 10 10 10 10 9 9 9 9 9 9 9 9 9 9 9 9 9 9 9 9 9 9 9 9 8 8 8 8
11 11 11 11 11 11 11 11 11 10 10 10 10 10 10 10 10 10 9 9 9 9 9 9 9 9 9 9 9 9 8 9 8 8 8 8 8 8 8 8 8 8 8
11 11 11 11 11 11 10 10 10 10 10 10 10 10 9 9 9 9 9 9 9 9 9 9 9 9 9 9 9 8 8 8 8 8 8 8 8 8 8 7 7 7 7
10 10 10 10 10 10 10 10 10 10 10 9 9 9 9 9 9 9 9 9 9 8 9 9 9 9 9 9 8 8 8 8 8 7 7 7 7 7 7 7 7 7 7
10 10 10 10 10 10 10 10 9 9 9 9 9 9 9 9 9 9 9 8 8 8 8 8 8 8 8 8 8 8 8 7 7 7 7 7 7 7 7 7 7 7 7
9 9 9 9 9 9 9 9 9 9 9 9 8 8 8 8 8 8 8 8 8 8 8 8 8 8 8 8 7 7 7 7 7 7 7 7 7 7 7 7 6 6 6
9 9 9 9 9 9 9 9 9 8 8 8 8 8 8 8 8 8 8 8 8 7 7 7 7 7 7 7 7 7 6 6 6 6 6 6 6 6 6 6 6 6 6
9 9 9 8 8 8 8 8 8 8 8 8 8 8 8 8 8 8 8 7 7 7 7 6 6 6 6 6 6 6 6 6 6 6 6 6 6 6 5 5 5 5 5
8 8 8 8 8 8 8 7 7 7 8 8 8 8 7 7 7 7 7 7 7 6 6 6 6 6 6 6 5 5 5 5 5 5 5 5 5 5 5 5 5 5 5
8 8 8 8 7 7 7 7 7 7 7 7 7 7 7 7 7 7 7 6 6 6 5 5 5 5 5 5 5 5 5 5 5 5 5 5 5 5 4 5 5 5 5
8 7 7 7 7 7 7 7 7 6 7 7 7 6 6 6 6 6 6 6 5 5 5 5 5 5 5 5 5 5 5 4 4 4 4 4 4 4 4 4 4 5 4
7 7 7 7 7 6 6 6 6 6 6 6 6 6 6 6 5 5 5 5 5 5 5 4 4 4 4 4 4 4 4 4 4 4 4 4 4 4 4 4 4 4 4
6 6 6 6 6 6 6 6 6 6 5 6 6 6 6 5 5 5 5 5 4 4 4 4 4 4 4 4 4 4 4 4 4 4 4 4 4 4 4 4 4 3 3
6 6 6 6 6 6 6 5 5 5 5 5 5 5 5 5 4 4 4 4 4 4 4 4 4 4 4 4 4 3 3 3 3 3 3 3 3 3 3 3 3 3 3
6 5 5 5 5 5 5 5 5 5 5 5 5 5 5 4 4 4 4 4 4 4 4 3 3 3 3 3 3 3 3 3 3 3 3 3 3 3 3 3 3 3 3
5 5 5 5 5 5 5 5 5 5 5 4 4 4 4 4 4 4 4 4 4 3 3 3 3 3 3 3 3 3 3 3 3 3 3 2 2 2 2 2 2 2 2
5 5 4 4 4 4 4 4 4 4 4 4 4 4 4 4 4 4 3 3 3 3 3 3 3 2 2 2 2 2 2 2 2 2 2 2 2 2 2 2 2 2 2
4 4 4 4 4 4 4 4 4 4 4 3 3 3 3 3 3 3 3 3 3 2 2 2 2 2 2 2 2 2 2 2 2 2 2 2 2 2 2 2 2 2 1
Wind_Speed
5 5 5 5 5 5 5 5 5 5 5 5 5 4 4 4 4 4 4 4 4 4 3 3 3 3 3 3 3 3 3 4 4 3 2 2 3 2 1 2 2 2 2
5 4 5 5 5 5 5 5 5 5 5 6 5 5 5 5 5 5 5 4 4 4 4 4 3 2 4 3 3 3 3 4 4 4 3 3 3 3 2 2 2 2 2
5 5 5 5 5 5 5 4 4 5 5 5 5 5 5 5 5 5 5 5 5 4 4 4 4 4 4 3 4 4 3 4 4 4 3 3 3 2 3 3 2 2 2
5 5 6 6 5 5 4 4 4 4 4 5 5 5 5 4 5 4 4 5 4 4 4 4 4 4 4 4 3 4 4 4 4 4 4 3 3 3 3 3 3 3 2
5 5 5 5 5 5 4 4 4 4 4 4 4 4 4 4 3 4 4 5 4 4 4 4 4 3 3 3 3 3 4 4 4 4 4 3 3 3 3 3 3 3 3
5 5 5 5 5 5 4 5 4 4 4 4 4 4 4 3 2 3 4 4 4 5 4 4 4 5 4 5 5 4 5 5 5 5 5 5 4 4 3 4 3 3 3
5 5 5 5 5 5 4 4 5 5 4 4 4 4 4 3 3 4 5 5 5 4 4 4 3 4 5 5 5 6 6 6 7 6 6 6 5 4 4 5 4 4 4
5 5 5 5 5 5 5 4 4 4 4 4 4 4 4 3 4 4 5 6 5 4 4 4 5 4 4 4 5 5 5 5 6 6 6 5 4 3 4 5 4 4 4
5 5 5 5 5 5 5 5 4 4 4 4 4 4 5 4 5 4 5 4 4 4 4 5 5 5 3 4 5 5 5 4 3 5 4 3 1 1 2 3 4 4 4
4 5 5 5 5 5 5 5 4 4 4 4 4 4 5 4 4 4 5 4 4 4 3 4 4 4 4 5 6 6 6 5 4 5 5 5 5 4 5 5 4 5 4
3 4 5 5 5 5 5 4 4 4 4 4 5 4 4 4 4 4 5 4 4 4 4 4 3 3 5 6 7 6 5 5 5 5 5 4 4 4 4 4 4 4 4
3 4 5 5 4 4 4 4 4 4 4 4 4 4 4 4 3 4 4 4 5 5 4 4 3 3 4 6 5 4 4 5 4 4 5 5 4 4 4 4 4 4 4
3 4 4 5 4 4 5 5 4 4 4 4 4 4 4 4 3 5 5 5 6 5 4 3 3 3 4 5 5 5 5 5 5 5 5 5 4 4 4 3 4 4 5
4 4 3 4 4 4 4 4 4 4 4 4 4 4 4 4 4 4 4 4 5 5 4 3 4 4 4 4 4 4 4 5 5 5 5 4 4 4 4 4 4 4 4
4 3 3 3 4 4 3 3 4 4 4 5 5 5 5 5 4 2 3 4 4 4 3 3 3 3 3 3 3 3 3 4 5 4 4 4 4 4 4 4 4 4 5
4 4 4 3 4 3 3 3 2 4 3 4 5 6 5 4 2 2 3 2 2 2 3 4 4 4 4 4 4 4 3 3 4 4 4 4 4 4 4 4 4 5 5
4 4 4 3 4 4 4 4 3 3 3 5 5 5 5 4 3 4 4 3 3 4 4 4 4 4 4 4 4 4 4 4 3 4 4 4 4 4 4 4 5 5 5
4 4 4 4 4 4 4 4 4 4 4 3 4 5 5 5 5 4 4 4 3 4 4 4 4 4 4 4 4 4 4 3 3 4 4 4 5 5 5 5 5 5 5
4 3 4 4 4 4 4 4 4 5 4 4 3 3 4 5 5 5 5 4 4 5 5 5 5 4 4 4 4 4 4 4 4 4 4 5 5 5 5 5 5 5 5
3 3 3 3 4 4 4 4 4 4 4 4 4 3 3 3 4 4 5 5 5 5 5 5 5 5 5 4 4 4 4 4 4 4 4 4 5 5 5 6 5 5 5
3 3 4 4 4 4 4 4 4 4 4 4 4 4 4 5 5 5 5 5 6 6 5 5 5 5 5 5 4 5 6 5 4 4 4 4 4 4 5 5 5 5 5
3 3 3 3 4 4 4 4 4 4 5 5 4 3 5 5 5 5 5 5 5 5 5 5 5 5 5 5 5 5 6 5 5 4 4 5 4 4 4 4 5 5 5
3 3 3 3 3 3 4 4 4 5 5 5 4 4 4 5 5 5 5 5 5 5 5 5 5 5 5 5 5 6 6 6 5 5 5 5 4 4 4 5 5 5 5
3 3 4 4 3 4 4 4 4 4 4 4 4 4 5 5 5 5 5 4 5 5 5 5 5 6 7 5 5 6 6 6 6 6 7 6 5 5 5 5 6 6 6
3 3 3 3 3 3 4 4 4 4 4 4 4 4 5 5 5 4 4 4 4 4 5 5 5 6 7 7 6 6 5 5 5 6 6 6 6 6 6 6 6 6 6
2 2 2 2 3 3 3 3 4 4 4 4 4 4 4 4 4 4 4 4 4 4 5 5 6 6 7 7 7 6 6 6 6 7 6 5 6 6 6 6 6 6 6
Wind_Direction
208 210 212 216 221 218 216 213 212 212 208 204 202 208 207 209 212 212 221 225 235 233 230 237 241 242 233 226 233 242 244 251 251 250 245 241 227 232 219 243 230 224 195
210 210 212 206 212 216 216 213 207 206 208 208 206 209 208 212 215 217 219 224 231 236 234 235 239 236 240 242 237 240 240 244 242 241 234 238 243 237 242 246 230 229 228
210 214 214 209 210 214 216 213 209 205 208 210 208 210 210 211 214 219 220 222 227 231 235 237 237 233 235 241 240 244 243 238 235 234 234 227 235 226 236 243 236 241 242
206 212 216 214 210 213 211 208 204 202 205 210 210 208 208 210 214 215 220 225 224 227 236 241 238 232 237 244 242 241 238 234 231 231 228 218 214 220 232 237 232 229 240
205 209 215 214 206 204 200 202 202 200 204 206 211 210 206 209 212 219 221 227 226 227 232 236 238 244 261 261 260 249 238 231 227 230 228 225 220 216 226 229 235 234 229
205 207 207 208 196 197 198 195 193 194 199 199 206 209 210 211 171 219 242 228 230 230 233 236 233 227 229 231 248 261 262 240 230 232 231 229 233 231 231 232 232 237 240
206 204 199 201 192 193 193 192 192 195 197 203 208 209 212 202 179 207 234 239 235 233 235 238 235 233 228 230 224 225 237 247 246 249 245 242 239 231 227 229 233 240 249
207 202 197 198 195 189 190 195 200 201 200 205 210 214 214 210 191 214 231 235 240 241 239 238 237 237 229 238 236 233 236 240 240 240 246 252 251 237 231 238 239 241 249
205 203 199 200 195 193 195 201 206 204 207 211 213 219 219 213 195 216 237 237 240 244 245 243 240 236 224 237 237 235 234 236 233 238 256 253 288 277 248 227 222 227 237
211 209 201 202 199 204 206 207 208 208 216 219 220 224 225 225 187 208 240 238 246 251 253 246 234 245 234 231 231 230 232 230 223 213 215 218 215 199 208 226 234 236 242
216 210 204 203 206 210 208 206 209 213 219 225 226 227 227 228 198 202 236 242 247 254 254 254 248 219 236 240 246 240 240 243 229 224 221 215 214 212 210 221 231 244 246
210 207 205 202 201 203 204 207 209 210 218 224 227 231 232 224 221 208 226 254 271 253 255 261 261 217 229 239 243 241 242 240 230 223 223 219 217 216 218 219 227 237 246
207 210 209 202 199 203 206 208 209 212 221 226 230 235 236 233 219 212 227 244 257 256 258 270 270 235 227 230 232 229 228 233 230 226 230 227 224 220 215 219 228 232 244
206 209 209 209 210 208 208 212 215 218 226 231 231 237 241 240 238 236 237 236 230 242 249 233 217 219 227 239 241 227 232 237 239 234 233 234 226 218 219 218 218 219 232
215 211 209 214 205 211 212 217 227 231 235 238 240 242 241 244 244 248 247 246 249 252 259 251 249 245 243 245 246 244 241 237 238 240 235 232 232 229 227 220 222 223 233
225 221 215 215 213 212 218 224 215 232 248 258 262 258 255 253 232 226 243 253 246 227 227 236 239 241 244 242 239 238 235 236 237 238 236 232 231 234 230 221 221 227 237
232 226 220 223 221 216 220 228 238 233 218 233 238 240 247 239 218 221 223 221 214 202 227 240 242 243 245 244 240 240 240 243 239 235 234 234 232 232 231 225 222 230 236
237 227 222 226 226 222 225 231 235 239 244 249 232 219 224 223 219 219 216 210 224 218 238 242 245 247 247 245 244 245 242 239 236 235 235 234 233 228 230 229 227 231 232
235 233 231 236 228 222 228 234 236 239 242 247 253 228 207 215 214 211 200 226 234 237 241 242 245 246 247 246 248 246 241 239 238 234 233 232 234 231 230 235 232 225 232
235 233 240 240 231 224 226 231 235 240 242 240 241 243 225 222 230 222 221 234 238 239 241 242 243 245 244 243 242 241 241 238 236 236 234 231 229 232 233 233 233 230 232
242 231 220 233 236 232 230 233 236 237 239 243 244 233 218 229 234 232 232 238 239 239 239 241 243 243 242 240 239 239 239 238 234 234 235 238 236 233 236 235 233 234 237
240 239 235 237 241 236 235 238 239 239 239 246 250 236 216 233 240 240 240 242 243 241 239 240 240 240 239 237 236 237 239 239 237 236 239 241 240 238 238 237 234 230 231
234 236 239 242 241 234 236 241 242 240 241 245 246 240 233 240 242 242 242 242 242 240 238 236 237 238 237 237 238 238 239 240 238 236 235 236 239 240 237 236 239 239 232
239 243 246 245 242 242 246 246 244 243 244 245 245 243 239 240 242 243 244 244 240 237 236 237 238 238 237 239 238 237 241 245 244 239 235 234 234 238 240 242 241 239 238
244 246 251 254 250 250 252 251 252 250 249 248 247 248 246 242 239 238 237 238 240 239 239 240 240 239 240 239 237 239 235 234 241 246 239 235 233 233 236 241 243 240 236
247 250 258 265 265 261 259 258 257 257 255 254 253 253 253 250 246 243 241 238 238 239 240 241 241 242 242 238 237 235 226 223 228 238 242 237 234 234 234 236 241 239 237
Height
1511 1512 1513 1514 1516 1517 1518 1518 1519 1519 1520 1521 1522 1522 1523 1523 1524 1524 1524 1524 1524 1524 1524 1524 1524 1524 1524 1523 1523 1523 1524 1524 1524 1523 1523 1522 1522 1522 1521 1521 1521 1521 1520
1508 1509 1510 1511 1513 1514 1514 1515 1515 1516 1517 1518 1519 1519 1520 1520 1521 1521 1522 1521 1521 1521 1522 1522 1522 1521 1521 1521 1521 1521 1521 1521 1522 1521 1520 1520 1520 1520 1520 1519 1519 1519 1519
1505 1506 1507 1508 1509 1510 1511 1512 1512 1513 1514 1515 1516 1517 1517 1517 1518 1518 1519 1519 1519 1519 1519 1519 1519 1519 1519 1519 1518 1518 1518 1518 1518 1518 1518 1518 1518 1518 1517 1517 1517 1517 1517
1502 1503 1504 1505 1506 1507 1508 1508 1509 1510 1510 1512 1513 1514 1514 1515 1515 1515 1516 1516 1516 1516 1516 1516 1516 1516 1516 1516 1516 1516 1515 1515 1516 1516 1516 1515 1515 1515 1515 1515 1515 1515 1515
1499 1500 1501 1501 1503 1504 1505 1505 1506 1507 1508 1509 1510 1511 1511 1512 1512 1512 1513 1513 1513 1513 1513 1513 1513 1513 1513 1513 1513 1513 1513 1513 1513 1513 1513 1513 1513 1512 1513 1513 1513 1513 1513
1496 1497 1498 1499 1500 1501 1501 1502 1503 1504 1505 1506 1507 1508 1508 1509 1509 1509 1510 1510 1510 1510 1509 1509 1509 1509 1509 1509 1509 1509 1509 1510 1510 1510 1510 1510 1510 1510 1510 1510 1511 1511 1511
1494 1494 1495 1495 1497 1498 1499 1500 1500 1501 1502 1503 1504 1505 1505 1505 1506 1506 1506 1506 1506 1506 1506 1506 1506 1505 1505 1506 1505 1505 1506 1505 1506 1507 1507 1507 1508 1507 1507 1508 1508 1508 1508
1491 1491 1492 1493 1494 1495 1496 1497 1498 1499 1499 1500 1501 1501 1502 1502 1502 1502 1503 1503 1503 1502 1502 1502 1502 1502 1502 1502 1502 1502 1502 1502 1502 1503 1503 1504 1504 1504 1505 1505 1505 1505 1505
1487 1488 1489 1490 1491 1492 1493 1494 1495 1496 1497 1497 1498 1498 1499 1499 1499 1499 1499 1499 1499 1499 1499 1499 1499 1499 1498 1498 1498 1498 1498 1498 1498 1498 1499 1500 1500 1500 1501 1501 1502 1502 1502
1484 1485 1486 1487 1488 1490 1490 1491 1492 1493 1494 1494 1495 1495 1495 1496 1496 1496 1496 1496 1496 1496 1495 1495 1495 1494 1495 1494 1494 1494 1494 1494 1495 1495 1495 1496 1496 1497 1497 1498 1498 1499 1499
1481 1482 1483 1484 1485 1487 1488 1488 1489 1490 1491 1491 1492 1492 1492 1492 1492 1492 1492 1492 1492 1492 1491 1491 1491 1490 1490 1490 1490 1490 1490 1491 1492 1492 1492 1492 1493 1493 1494 1494 1495 1495 1496
1478 1478 1479 1481 1482 1483 1484 1485 1486 1487 1487 1488 1488 1488 1488 1488 1488 1488 1488 1489 1488 1488 1488 1487 1487 1486 1486 1486 1486 1486 1487 1487 1488 1488 1488 1489 1489 1489 1490 1490 1491 1491 1492
1475 1476 1476 1477 1478 1480 1481 1482 1483 1483 1484 1484 1485 1485 1485 1485 1484 1484 1484 1484 1484 1484 1484 1483 1483 1483 1482 1482 1482 1482 1483 1484 1484 1484 1484 1485 1485 1486 1486 1487 1487 1488 1488
1472 1472 1473 1474 1475 1476 1477 1478 1479 1479 1480 1480 1480 1481 1481 1481 1481 1481 1480 1480 1480 1480 1480 1479 1479 1478 1478 1478 1478 1478 1479 1479 1480 1480 1481 1481 1481 1481 1482 1482 1483 1483 1484
1469 1469 1470 1471 1472 1473 1473 1474 1475 1475 1476 1476 1477 1477 1477 1477 1477 1477 1476 1476 1476 1476 1475 1475 1475 1474 1474 1474 1474 1474 1474 1475 1475 1476 1476 1477 1477 1477 1477 1478 1479 1479 1480
1466 1466 1467 1467 1468 1469 1469 1470 1470 1471 1471 1472 1472 1473 1473 1473 1473 1472 1472 1472 1472 1472 1471 1470 1470 1470 1470 1469 1469 1470 1470 1470 1470 1471 1472 1472 1472 1473 1473 1474 1474 1475 1476
1462 1462 1463 1463 1464 1464 1465 1466 1466 1467 1467 1467 1468 1468 1468 1468 1468 1468 1468 1468 1468 1467 1467 1466 1466 1465 1465 1465 1465 1465 1465 1466 1466 1466 1467 1467 1468 1469 1469 1469 1470 1471 1471
1458 1458 1459 1459 1460 1460 1461 1462 1462 1462 1462 1462 1463 1463 1463 1462 1463 1463 1463 1463 1462 1462 1462 1462 1461 1461 1461 1461 1461 1461 1461 1461 1461 1461 1462 1463 1464 1465 1465 1465 1465 1466 1467
1454 1454 1455 1455 1455 1456 1457 1457 1458 1458 1458 1458 1458 1458 1458 1458 1458 1458 1458 1458 1457 1457 1457 1457 1457 1457 1457 1457 1456 1456 1456 1456 1456 1457 1457 1458 1459 1460 1460 1461 1461 1462 1463
1450 1450 1450 1451 1452 1452 1453 1453 1454 1454 1453 1453 1453 1453 1453 1453 1453 1453 1452 1452 1452 1452 1453 1453 1452 1452 1452 1452 1452 1452 1452 1452 1452 1452 1452 1453 1454 1455 1456 1457 1457 1458 1458
1446 1447 1447 1447 1448 1448 1449 1449 1449 1449 1449 1449 1449 1449 1449 1448 1448 1448 1448 1448 1448 1448 1448 1448 1448 1448 1448 1448 1448 1447 1447 1447 1448 1448 1448 1449 1450 1451 1452 1453 1453 1454 1454
1443 1443 1443 1444 1444 1445 1445 1445 1445 1445 1445 1445 1444 1444 1444 1444 1444 1443 1443 1443 1443 1443 1443 1443 1443 1443 1443 1443 1443 1443 1443 1443 1443 1444 1445 1445 1446 1447 1448 1449 1449 1450 1450
1440 1440 1440 1440 1440 1440 1441 1441 1441 1441 1440 1440 1440 1440 1439 1439 1439 1439 1438 1438 1438 1438 1438 1438 1438 1438 1438 1438 1438 1438 1439 1439 1439 1440 1441 1441 1442 1443 1444 1444 1445 1445 1446
1436 1436 1436 1437 1436 1437 1437 1437 1436 1436 1436 1436 1435 1435 1435 1434 1434 1434 1434 1433 1433 1433 1433 1433 1433 1433 1433 1433 1434 1434 1434 1435 1435 1436 1436 1437 1438 1438 1439 1440 1440 1441 1442
1433 1433 1433 1432 1432 1433 1433 1432 1432 1432 1431 1431 1431 1430 1430 1430 1429 1429 1429 1428 1428 1428 1428 1428 1429 1429 1429 1429 1429 1429 1429 1430 1430 1431 1432 1433 1433 1434 1435 1435 1436 1436 1437
1430 1429 1429 1429 1429 1429 1429 1428 1428 1427 1427 1426 1426 1426 1425 1425 1424 1424 1424 1423 1423 1423 1423 1423 1424 1424 1424 1424 1424 1424 1424 1425 1425 1426 1427 1428 1429 1429 1430 1430 1431 1431 1432